• în România
  • Lista ţărilor
  • Pe 7 zile
  • Temperatura apei
  • Hartă satelitară
  • Meteo pe hartă
  • Widget-uri
  • user-avatar
    Intrare

    Meteo pe oră la Pontypool

    Astăzi, 24 Februarie, Sâmbătă

    Timp Temperatura Precipitaţii Vânt Presiune Umiditate
    00:00 -5°C° 0 mm 4 m/s 748 mmHg 87%
    01:00 -5°C° 0 mm 4 m/s 748 mmHg 87%
    02:00 -6°C° 0 mm 5 m/s 748 mmHg 87%
    03:00 -6°C° 0 mm 5 m/s 748 mmHg 87%
    04:00 -6°C° 0 mm 5 m/s 748 mmHg 87%
    05:00 -6°C° 0 mm 5 m/s 748 mmHg 86%
    06:00 -5°C° 0 mm 4 m/s 749 mmHg 90%
    07:00 -5°C° 0 mm 4 m/s 749 mmHg 84%
    08:00 -5°C° 0 mm 5 m/s 750 mmHg 79%
    09:00 -4°C° 0 mm 5 m/s 750 mmHg 74%
    10:00 -2°C° 0 mm 5 m/s 750 mmHg 67%
    11:00 -1°C° 0 mm 6 m/s 750 mmHg 60%
    12:00 +1°C° 0 mm 6 m/s 750 mmHg 54%
    13:00 +2°C° 0 mm 6 m/s 750 mmHg 53%
    14:00 +2°C° 0 mm 6 m/s 750 mmHg 52%
    15:00 +3°C° 0 mm 6 m/s 750 mmHg 51%
    16:00 +2°C° 0 mm 6 m/s 750 mmHg 54%
    17:00 -1°C° 0 mm 6 m/s 750 mmHg 56%
    18:00 -1°C° 0 mm 5 m/s 751 mmHg 59%
    19:00 -2°C° 0 mm 5 m/s 751 mmHg 60%
    20:00 -2°C° 0 mm 5 m/s 751 mmHg 62%
    21:00 -4°C° 0 mm 5 m/s 752 mmHg 63%
    22:00 -4°C° 0 mm 5 m/s 752 mmHg 66%
    23:00 -4°C° 0 mm 6 m/s 752 mmHg 69%

    Mâine, 25 Februarie, Duminică

    Timp Temperatura Precipitaţii Vânt Presiune Umiditate
    00:00 -4°C° 0 mm 6 m/s 753 mmHg 72%
    01:00 -4°C° 0 mm 6 m/s 753 mmHg 74%
    02:00 -5°C° 0 mm 6 m/s 753 mmHg 76%
    03:00 -5°C° 0 mm 6 m/s 753 mmHg 78%
    04:00 -5°C° 0 mm 6 m/s 753 mmHg 78%
    05:00 -5°C° 0 mm 6 m/s 753 mmHg 78%
    06:00 -5°C° 0 mm 6 m/s 754 mmHg 78%
    07:00 -4°C° 0 mm 6 m/s 754 mmHg 72%
    08:00 -4°C° 0 mm 7 m/s 754 mmHg 67%
    09:00 -3°C° 0 mm 7 m/s 755 mmHg 61%
    10:00 -2°C° 0 mm 7 m/s 755 mmHg 57%
    11:00 -1°C° 0 mm 7 m/s 755 mmHg 52%
    12:00 0°C° 0 mm 7 m/s 755 mmHg 47%
    13:00 +2°C° 0 mm 7 m/s 755 mmHg 47%
    14:00 +2°C° 0 mm 7 m/s 755 mmHg 48%
    15:00 +2°C° 0 mm 7 m/s 755 mmHg 48%
    16:00 0°C° 0 mm 7 m/s 755 mmHg 50%
    17:00 -2°C° 0 mm 6 m/s 755 mmHg 53%
    18:00 -3°C° 0 mm 6 m/s 756 mmHg 55%
    19:00 -4°C° 0 mm 6 m/s 756 mmHg 57%
    20:00 -4°C° 0 mm 6 m/s 756 mmHg 59%
    21:00 -5°C° 0 mm 6 m/s 757 mmHg 61%
    22:00 -6°C° 0 mm 6 m/s 757 mmHg 63%
    23:00 -6°C° 0 mm 6 m/s 757 mmHg 65%

    Poimâine, 26 Februarie, Luni

    Timp Temperatura Precipitaţii Vânt Presiune Umiditate
    00:00 -6°C° 0 mm 6 m/s 757 mmHg 67%
    01:00 -6°C° 0 mm 6 m/s 757 mmHg 70%
    02:00 -6°C° 0 mm 5 m/s 757 mmHg 73%
    03:00 -6°C° 0 mm 5 m/s 757 mmHg 75%
    04:00 -6°C° 0 mm 5 m/s 757 mmHg 76%
    05:00 -6°C° 0 mm 5 m/s 758 mmHg 77%
    06:00 -6°C° 0 mm 5 m/s 758 mmHg 77%
    07:00 -6°C° 0 mm 6 m/s 758 mmHg 70%
    08:00 -6°C° 0 mm 7 m/s 758 mmHg 63%
    09:00 -4°C° 0 mm 7 m/s 758 mmHg 55%
    10:00 -4°C° 0 mm 8 m/s 758 mmHg 51%
    11:00 -2°C° 0 mm 8 m/s 758 mmHg 47%
    12:00 -2°C° 0 mm 8 m/s 758 mmHg 42%
    13:00 -2°C° 0 mm 8 m/s 758 mmHg 43%
    14:00 -1°C° 0 mm 7 m/s 758 mmHg 44%
    15:00 -1°C° 0 mm 7 m/s 758 mmHg 44%
    16:00 -2°C° 0 mm 7 m/s 758 mmHg 49%
    17:00 -3°C° 0 mm 6 m/s 758 mmHg 54%
    18:00 -4°C° 0 mm 5 m/s 757 mmHg 58%
    19:00 -5°C° 0 mm 6 m/s 758 mmHg 62%
    20:00 -5°C° 0 mm 6 m/s 758 mmHg 66%
    21:00 -6°C° 0 mm 6 m/s 758 mmHg 70%
    22:00 -6°C° 0 mm 6 m/s 758 mmHg 72%
    23:00 -6°C° 0 mm 6 m/s 758 mmHg 75%

    27 Februarie, Marţi

    Timp Temperatura Precipitaţii Vânt Presiune Umiditate
    00:00 -7°C° 0 mm 5 m/s 757 mmHg 77%
    01:00 -7°C° 0 mm 5 m/s 757 mmHg 77%
    02:00 -7°C° 0 mm 5 m/s 756 mmHg 78%
    03:00 -7°C° 0 mm 5 m/s 756 mmHg 79%
    04:00 -7°C° 0 mm 5 m/s 756 mmHg 80%
    05:00 -7°C° 0 mm 5 m/s 755 mmHg 80%
    06:00 -7°C° 0 mm 4 m/s 755 mmHg 81%
    07:00 -6°C° 0 mm 5 m/s 754 mmHg 76%
    08:00 -5°C° 0 mm 5 m/s 754 mmHg 71%
    09:00 -5°C° 0 mm 6 m/s 754 mmHg 66%
    10:00 -4°C° 0 mm 6 m/s 754 mmHg 60%
    11:00 -3°C° 0 mm 6 m/s 753 mmHg 53%
    12:00 -2°C° 0 mm 6 m/s 753 mmHg 47%
    13:00 -2°C° 0,1 mm 6 m/s 753 mmHg 47%
    14:00 -2°C° 0,1 mm 6 m/s 752 mmHg 47%
    15:00 -2°C° 0,1 mm 6 m/s 752 mmHg 47%
    16:00 -3°C° 0 mm 6 m/s 751 mmHg 52%
    17:00 -4°C° 0 mm 5 m/s 751 mmHg 58%
    18:00 -5°C° 0 mm 5 m/s 751 mmHg 63%
    19:00 -6°C° 0 mm 5 m/s 751 mmHg 68%
    20:00 -6°C° 0 mm 5 m/s 751 mmHg 73%
    21:00 -7°C° 0 mm 5 m/s 750 mmHg 78%
    22:00 -7°C° 0 mm 5 m/s 750 mmHg 81%
    23:00 -7°C° 0 mm 5 m/s 750 mmHg 84%

    28 Februarie, Miercuri

    Timp Temperatura Precipitaţii Vânt Presiune Umiditate
    00:00 -8°C° 0 mm 4 m/s 750 mmHg 87%
    01:00 -8°C° 0 mm 5 m/s 749 mmHg 85%
    02:00 -7°C° 0 mm 5 m/s 749 mmHg 84%
    03:00 -7°C° 0 mm 5 m/s 748 mmHg 83%
    04:00 -8°C° 0 mm 5 m/s 748 mmHg 82%
    05:00 -8°C° 0 mm 5 m/s 747 mmHg 81%
    06:00 -8°C° 0 mm 5 m/s 747 mmHg 80%
    07:00 -9°C° 0 mm 6 m/s 747 mmHg 78%
    08:00 -8°C° 0 mm 6 m/s 746 mmHg 76%
    09:00 -8°C° 0 mm 6 m/s 746 mmHg 74%
    10:00 -6°C° 0 mm 6 m/s 746 mmHg 65%
    11:00 -5°C° 0 mm 6 m/s 746 mmHg 56%
    12:00 -3°C° 0 mm 6 m/s 746 mmHg 47%
    13:00 -3°C° 0 mm 7 m/s 745 mmHg 44%
    14:00 -3°C° 0 mm 7 m/s 745 mmHg 41%
    15:00 -4°C° 0 mm 8 m/s 744 mmHg 38%
    16:00 -6°C° 0 mm 8 m/s 745 mmHg 43%
    17:00 -7°C° 0 mm 7 m/s 745 mmHg 49%
    18:00 -8°C° 0 mm 7 m/s 745 mmHg 54%
    19:00 -10°C° 0 mm 8 m/s 745 mmHg 58%
    20:00 -11°C° 0 mm 8 m/s 744 mmHg 62%
    21:00 -11°C° 0 mm 8 m/s 744 mmHg 65%
    22:00 -11°C° 0 mm 8 m/s 744 mmHg 67%
    23:00 -11°C° 0 mm 8 m/s 743 mmHg 69%

    1 Martie, Joi

    Timp Temperatura Precipitaţii Vânt Presiune Umiditate
    00:00 -11°C° 0 mm 8 m/s 743 mmHg 70%
    01:00 -11°C° 0 mm 8 m/s 742 mmHg 71%
    02:00 -11°C° 0 mm 8 m/s 742 mmHg 71%
    03:00 -11°C° 0 mm 8 m/s 741 mmHg 72%
    04:00 -11°C° 0 mm 9 m/s 740 mmHg 72%
    05:00 -11°C° 0 mm 9 m/s 740 mmHg 73%
    06:00 -11°C° 0 mm 9 m/s 739 mmHg 73%
    07:00 -10°C° 0 mm 10 m/s 739 mmHg 72%
    08:00 -10°C° 0 mm 10 m/s 738 mmHg 70%
    09:00 -9°C° 0 mm 10 m/s 738 mmHg 69%
    10:00 -8°C° 0 mm 11 m/s 737 mmHg 67%
    11:00 -8°C° 0 mm 11 m/s 737 mmHg 65%
    12:00 -7°C° 0 mm 11 m/s 736 mmHg 63%
    13:00 -7°C° 0,1 mm 11 m/s 735 mmHg 66%
    14:00 -7°C° 0,1 mm 11 m/s 734 mmHg 68%
    15:00 -7°C° 0,1 mm 11 m/s 734 mmHg 71%
    16:00 -7°C° 0,2 mm 11 m/s 733 mmHg 75%
    17:00 -7°C° 0,2 mm 12 m/s 732 mmHg 79%
    18:00 -8°C° 0,2 mm 12 m/s 731 mmHg 82%
    19:00 -8°C° 1,1 mm 12 m/s 731 mmHg 85%
    20:00 -7°C° 1,1 mm 13 m/s 730 mmHg 88%
    21:00 -7°C° 1,1 mm 13 m/s 729 mmHg 91%
    22:00 -7°C° 1,2 mm 13 m/s 728 mmHg 91%
    23:00 -7°C° 1,2 mm 13 m/s 728 mmHg 92%
    Arată mai mult